| time (UTC) | temp F | wind direction | speed MPH | gust MPH | rain 1hr in | rain 24hr in | rain mn in | humidity % | barometer mb |
| 20260902113029 | 64 | 253 | 0.0 | 0.0 | 0.00 | 0.30 | 0.01 | 1019.8 | |
| 20260902112529 | 64 | 253 | 0.0 | 0.0 | 0.00 | 0.30 | 0.01 | 1020.0 | |
| 20260902112029 | 64 | 253 | 0.0 | 0.0 | 0.00 | 0.31 | 0.01 | 1020.0 | |
| 20260902111529 | 64 | 253 | 0.0 | 0.0 | 0.00 | 0.32 | 0.01 | 1020.1 | |
| 20260902111029 | 64 | 253 | 0.0 | 0.0 | 0.00 | 0.33 | 0.01 | 1020.2 | |
| 20260902110529 | 64 | 253 | 0.0 | 0.0 | 0.00 | 0.34 | 0.01 | 1020.1 | |
| 20260902110044 | 64 | 253 | 0.0 | 0.0 | 0.00 | 0.35 | 0.01 | 1020.3 | |
| 20260902105529 | 64 | 253 | 0.0 | 0.0 | 0.00 | 0.36 | 0.01 | 1020.2 | |
| 20260902105044 | 64 | 253 | 0.0 | 0.0 | 0.00 | 0.38 | 0.01 | 1020.1 | |
| 20260902104529 | 64 | 253 | 0.0 | 0.0 | 0.00 | 0.39 | 0.01 | 1020.2 | |
| 20260902104029 | 64 | 253 | 0.0 | 0.0 | 0.00 | 0.39 | 0.01 | 1020.0 | |
| 20260902103531 | 64 | 253 | 0.0 | 0.0 | 0.00 | 0.40 | 0.01 | 1019.8 | |
| 20260902103044 | 64 | 253 | 0.0 | 0.0 | 0.00 | 0.40 | 0.01 | 1019.8 | |
| 20260902102529 | 64 | 253 | 0.0 | 0.0 | 0.00 | 0.41 | 0.01 | 1019.9 | |
| 20260902102030 | 64 | 253 | 0.0 | 0.0 | 0.00 | 0.42 | 0.01 | 1019.7 | |
| 20260902101545 | 64 | 253 | 0.0 | 0.0 | 0.00 | 0.45 | 0.01 | 1019.7 | |
| 20260902101045 | 64 | 253 | 0.0 | 0.0 | 0.00 | 0.49 | 0.01 | 1019.9 | |
| 20260902100529 | 64 | 253 | 0.0 | 0.0 | 0.00 | 0.54 | 0.01 | 1019.8 | |
| 20260902100029 | 64 | 253 | 0.0 | 0.0 | 0.00 | 0.58 | 0.01 | 1019.9 | |
| 20260902095529 | 64 | 253 | 0.0 | 2.0 | 0.00 | 0.61 | 0.01 | 1019.8 | |
| 20260902095030 | 64 | 253 | 0.0 | 2.0 | 0.00 | 0.64 | 0.01 | 1019.8 | |
| 20260902094529 | 64 | 253 | 0.0 | 0.0 | 0.00 | 0.68 | 0.01 | 1019.6 | |
| 20260902094029 | 64 | 253 | 0.0 | 0.0 | 0.00 | 0.71 | 0.01 | 1019.6 | |
| 20260902093529 | 64 | 253 | 0.0 | 0.0 | 0.00 | 0.74 | 0.01 | 1019.5 | |
| 20260902093029 | 64 | 253 | 0.0 | 0.0 | 0.00 | 0.76 | 0.01 | 1019.5 | |
| 20260902092529 | 64 | 253 | 0.0 | 0.0 | 0.00 | 0.76 | 0.01 | 1019.5 | |
| 20260902092030 | 64 | 253 | 0.0 | 0.0 | 0.00 | 0.78 | 0.01 | 1019.6 | |
| 20260902091614 | 64 | 253 | 0.0 | 0.0 | 0.00 | 0.79 | 0.01 | 1019.5 | |
| 20260902091029 | 64 | 253 | 0.0 | 0.0 | 0.00 | 0.81 | 0.01 | 1019.4 | |
| 20260902090529 | 64 | 253 | 0.0 | 0.0 | 0.00 | 0.83 | 0.01 | 1019.4 | |
| 20260902090029 | 64 | 253 | 0.0 | 0.0 | 0.00 | 0.84 | 0.01 | 1019.4 | |
| 20260902085559 | 64 | 253 | 0.0 | 0.0 | 0.00 | 0.84 | 0.01 | 1019.4 | |
| 20260902085029 | 64 | 253 | 0.0 | 0.0 | 0.00 | 0.84 | 0.01 | 1019.4 | |
| 20260902084529 | 64 | 253 | 0.0 | 0.0 | 0.00 | 0.84 | 0.01 | 1019.6 | |
| 20260902084030 | 64 | 253 | 0.0 | 0.0 | 0.00 | 0.84 | 0.01 | 1019.5 | |
| 20260902083530 | 64 | 253 | 0.0 | 0.0 | 0.00 | 0.84 | 0.01 | 1019.4 | |
| 20260902083029 | 64 | 253 | 0.0 | 0.0 | 0.00 | 0.84 | 0.01 | 1019.5 | |
| 20260902082559 | 64 | 253 | 0.0 | 0.0 | 0.00 | 0.84 | 0.01 | 1019.4 | |
| 20260902082029 | 64 | 253 | 0.0 | 0.0 | 0.00 | 0.84 | 0.01 | 1019.3 | |
| 20260902081529 | 64 | 253 | 0.0 | 0.0 | 0.00 | 0.84 | 0.01 | 1019.4 | |
| 20260902081029 | 64 | 253 | 0.0 | 0.0 | 0.00 | 0.84 | 0.01 | 1019.5 | |
| 20260902080559 | 64 | 253 | 0.0 | 0.0 | 0.00 | 0.84 | 0.01 | 1019.5 | |
| 20260902080029 | 64 | 253 | 0.0 | 0.0 | 0.00 | 0.84 | 0.01 | 1019.5 | |
| 20260902075530 | 64 | 253 | 0.0 | 0.0 | 0.00 | 0.84 | 0.01 | 1019.4 | |
| 20260902075029 | 64 | 253 | 0.0 | 0.0 | 0.00 | 0.84 | 0.01 | 1019.4 | |
| 20260902074529 | 64 | 253 | 0.0 | 0.0 | 0.00 | 0.84 | 0.01 | 1019.5 | |
| 20260902074029 | 64 | 253 | 0.0 | 0.0 | 0.00 | 0.84 | 0.01 | 1019.3 | |
| 20260902073529 | 64 | 253 | 0.0 | 0.0 | 0.00 | 0.84 | 0.01 | 1019.3 | |
| 20260902073029 | 64 | 253 | 0.0 | 0.0 | 0.00 | 0.84 | 0.01 | 1019.2 | |
| 20260902072529 | 64 | 253 | 0.0 | 0.0 | 0.00 | 0.84 | 0.01 | 1019.2 | |
| 20260902072029 | 64 | 253 | 0.0 | 0.0 | 0.00 | 0.84 | 0.01 | 1019.3 | |
| 20260902071545 | 64 | 253 | 0.0 | 0.0 | 0.00 | 0.84 | 0.01 | 1019.3 | |
| 20260902071029 | 64 | 253 | 0.0 | 0.0 | 0.00 | 0.84 | 0.01 | 1019.3 | |
| 20260902070529 | 64 | 253 | 0.0 | 0.0 | 0.00 | 0.84 | 0.01 | 1019.3 | |
| 20260902070029 | 64 | 253 | 0.0 | 0.0 | 0.00 | 0.84 | 0.01 | 1019.4 | |
| 20260902065600 | 64 | 253 | 0.0 | 0.0 | 0.00 | 0.84 | 0.01 | 1019.6 | |
| 20260902065029 | 64 | 253 | 0.0 | 0.0 | 0.00 | 0.84 | 0.01 | 1019.7 | |
| 20260902064528 | 64 | 253 | 0.0 | 0.0 | 0.00 | 0.84 | 0.01 | 1019.6 | |
| 20260902064029 | 64 | 253 | 0.0 | 0.0 | 0.00 | 0.84 | 0.01 | 1019.6 | |
| 20260902063529 | 64 | 253 | 0.0 | 0.0 | 0.00 | 0.84 | 0.01 | 1019.5 | |
| 20260902063029 | 64 | 253 | 0.0 | 0.0 | 0.00 | 0.84 | 0.01 | 1019.4 | |
| 20260902062544 | 64 | 253 | 0.0 | 0.0 | 0.00 | 0.84 | 0.01 | 1019.5 | |
| 20260902062044 | 64 | 253 | 0.0 | 0.0 | 0.01 | 0.84 | 0.01 | 1019.4 | |
| 20260902061543 | 65 | 253 | 0.0 | 0.0 | 0.01 | 0.84 | 0.01 | 1019.4 | |
| 20260902061028 | 65 | 253 | 0.0 | 0.0 | 0.01 | 0.84 | 0.01 | 1019.5 | |
| 20260902060529 | 65 | 253 | 0.0 | 0.0 | 0.01 | 0.84 | 0.01 | 1019.5 | |
| 20260902060029 | 65 | 253 | 0.0 | 0.0 | 0.01 | 0.84 | 0.01 | 1019.4 | |
| 20260902055529 | 65 | 253 | 0.0 | 0.0 | 0.01 | 0.84 | 0.01 | 1019.4 | |
| 20260902055029 | 65 | 253 | 0.0 | 0.0 | 0.01 | 0.84 | 0.01 | 1019.5 | |
| 20260902054529 | 66 | 253 | 0.0 | 0.0 | 0.01 | 0.84 | 0.01 | 1019.5 | |
| 20260902054029 | 66 | 253 | 0.0 | 0.0 | 0.01 | 0.84 | 0.01 | 1019.5 | |
| 20260902053614 | 66 | 253 | 0.0 | 0.0 | 0.01 | 0.84 | 0.01 | 1019.4 | |
| 20260902053030 | 66 | 253 | 0.0 | 0.0 | 0.01 | 0.84 | 0.01 | 1019.5 | |
| 20260902052544 | 66 | 253 | 0.0 | 0.0 | 0.01 | 0.84 | 0.01 | 1019.4 | |
| 20260902052029 | 66 | 253 | 0.0 | 0.0 | 0.00 | 0.83 | 0.00 | 1019.2 | |
| 20260902051544 | 66 | 253 | 0.0 | 0.0 | 0.00 | 0.83 | 0.00 | 1019.1 | |
| 20260902051028 | 66 | 253 | 0.0 | 0.0 | 0.00 | 0.83 | 0.00 | 1019.0 | |
| 20260902050530 | 66 | 253 | 0.0 | 0.0 | 0.00 | 0.83 | 0.00 | 1018.9 | |
| 20260902050028 | 66 | 253 | 0.0 | 0.0 | 0.00 | 0.83 | 0.00 | 1018.8 | |
| 20260902045545 | 66 | 253 | 0.0 | 0.0 | 0.00 | 0.83 | 0.00 | 1018.8 | |
| 20260902045029 | 66 | 253 | 0.0 | 0.0 | 0.00 | 0.83 | 0.00 | 1018.7 | |
| 20260902044529 | 66 | 253 | 0.0 | 5.0 | 0.00 | 0.83 | 0.00 | 1018.6 | |
| 20260902044029 | 66 | 253 | 0.0 | 5.0 | 0.00 | 0.83 | 0.00 | 1018.4 | |
| 20260902043529 | 66 | 253 | 0.0 | 0.0 | 0.01 | 0.83 | 0.00 | 1018.2 | |
| 20260902043029 | 66 | 253 | 0.0 | 3.0 | 0.01 | 0.83 | 0.00 | 1018.3 | |
| 20260902042530 | 66 | 253 | 0.0 | 3.0 | 0.01 | 0.83 | 0.00 | 1018.2 | |
| 20260902042029 | 66 | 253 | 2.0 | 3.0 | 0.01 | 0.83 | 0.00 | 1018.1 | |
| 20260902041045 | 66 | 253 | 0.0 | 0.0 | 0.01 | 0.83 | 0.00 | 1018.1 | |
| 20260902040529 | 66 | 253 | 0.0 | 0.0 | 0.01 | 0.83 | 0.00 | 1017.9 | |
| 20260902040044 | 66 | 253 | 0.0 | 0.0 | 0.01 | 0.83 | 0.00 | 1017.9 | |
| 20260902035529 | 66 | 253 | 0.0 | 0.0 | 0.01 | 0.83 | 0.83 | 1017.8 | |
| 20260902035029 | 66 | 253 | 0.0 | 0.0 | 0.01 | 0.83 | 0.83 | 1017.9 | |
| 20260902034529 | 66 | 253 | 0.0 | 0.0 | 0.01 | 0.83 | 0.83 | 1017.8 | |
| 20260902034028 | 66 | 253 | 0.0 | 0.0 | 0.01 | 0.83 | 0.83 | 1017.8 | |
| 20260902033528 | 66 | 253 | 0.0 | 0.0 | 0.00 | 0.82 | 0.82 | 1017.8 | |
| 20260902033029 | 67 | 253 | 0.0 | 0.0 | 0.00 | 0.82 | 0.82 | 1017.7 | |
| 20260902032530 | 67 | 253 | 0.0 | 2.0 | 0.00 | 0.82 | 0.82 | 1017.6 | |
| 20260902032044 | 67 | 253 | 0.0 | 3.0 | 0.00 | 0.82 | 0.82 | 1017.7 | |
| 20260902031530 | 67 | 252 | 1.0 | 3.0 | 0.00 | 0.82 | 0.82 | 1017.7 | |
| 20260902031028 | 67 | 241 | 0.0 | 2.0 | 0.00 | 0.82 | 0.82 | 1017.8 | |
| 20260902030529 | 67 | 225 | 0.0 | 0.0 | 0.00 | 0.82 | 0.82 | 1017.8 | |
| 20260902030043 | 67 | 212 | 0.0 | 3.0 | 0.00 | 0.82 | 0.82 | 1017.8 | |
| 20260902025558 | 67 | 206 | 0.0 | 3.0 | 0.00 | 0.82 | 0.82 | 1017.8 | |
| 20260902025029 | 68 | 178 | 1.0 | 3.0 | 0.00 | 0.82 | 0.82 | 1017.9 | |
| 20260902024529 | 68 | 125 | 0.0 | 5.0 | 0.00 | 0.82 | 0.82 | 1017.9 | |
| 20260902024058 | 68 | 95 | 0.0 | 5.0 | 0.00 | 0.82 | 0.82 | 1017.9 | |
| 20260902023529 | 68 | 50 | 0.0 | 5.0 | 0.00 | 0.82 | 0.82 | 1018.0 | |
| 20260902023028 | 68 | 48 | 0.0 | 5.0 | 0.00 | 0.82 | 0.82 | 1018.0 | |
| 20260902022600 | 68 | 48 | 0.0 | 0.0 | 0.00 | 0.82 | 0.82 | 1018.0 | |
| 20260902022028 | 68 | 48 | 0.0 | 0.0 | 0.00 | 0.82 | 0.82 | 1018.0 | |
| 20260902021528 | 68 | 48 | 0.0 | 0.0 | 0.00 | 0.82 | 0.82 | 1018.1 | |
| 20260902021028 | 68 | 48 | 0.0 | 0.0 | 0.00 | 0.82 | 0.82 | 1018.0 | |
| 20260902020528 | 68 | 48 | 0.0 | 0.0 | 0.00 | 0.82 | 0.82 | 1018.0 | |
| 20260902020028 | 68 | 48 | 0.0 | 0.0 | 0.00 | 0.82 | 0.82 | 1018.1 | |
| 20260902015530 | 69 | 48 | 0.0 | 0.0 | 0.00 | 0.82 | 0.82 | 1018.0 | |
| 20260902015028 | 69 | 48 | 0.0 | 0.0 | 0.00 | 0.82 | 0.82 | 1017.8 | |
| 20260902014528 | 69 | 48 | 0.0 | 0.0 | 0.00 | 0.82 | 0.82 | 1017.8 | |
| 20260902014029 | 69 | 48 | 0.0 | 0.0 | 0.00 | 0.82 | 0.82 | 1017.7 | |
| 20260902013528 | 69 | 48 | 0.0 | 0.0 | 0.00 | 0.82 | 0.82 | 1017.6 | |
| 20260902013028 | 69 | 48 | 0.0 | 0.0 | 0.00 | 0.82 | 0.82 | 1017.6 | |
| 20260902012529 | 69 | 48 | 0.0 | 5.0 | 0.00 | 0.82 | 0.82 | 1017.5 | |
| 20260902012043 | 69 | 48 | 0.0 | 5.0 | 0.00 | 0.82 | 0.82 | 1017.5 | |
| 20260902011528 | 69 | 48 | 0.0 | 5.0 | 0.00 | 0.82 | 0.82 | 1017.3 | |
| 20260902011028 | 69 | 48 | 0.0 | 5.0 | 0.00 | 0.82 | 0.82 | 1017.4 | |
| 20260902010528 | 69 | 48 | 0.0 | 3.0 | 0.00 | 0.82 | 0.82 | 1017.4 | |
| 20260902010029 | 69 | 48 | 0.0 | 3.0 | 0.00 | 0.82 | 0.82 | 1017.4 | |
| 20260902005528 | 69 | 48 | 0.0 | 5.0 | 0.00 | 0.82 | 0.82 | 1017.2 | |
| 20260902005028 | 69 | 48 | 0.0 | 5.0 | 0.00 | 0.82 | 0.82 | 1017.2 | |
| 20260902004528 | 69 | 45 | 0.0 | 2.0 | 0.00 | 0.82 | 0.82 | 1017.3 | |
| 20260902004029 | 69 | 47 | 0.0 | 8.0 | 0.00 | 0.82 | 0.82 | 1017.2 | |
| 20260902003528 | 69 | 52 | 0.0 | 8.0 | 0.00 | 0.82 | 0.82 | 1017.2 | |
| 20260902003129 | 69 | 39 | 2.0 | 6.0 | 0.00 | 0.82 | 0.82 | 1017.1 | |
| 20260902002558 | 69 | 22 | 0.0 | 6.0 | 0.00 | 0.82 | 0.82 | 1017.1 | |
| 20260902002028 | 69 | 22 | 3.0 | 6.0 | 0.00 | 0.82 | 0.82 | 1017.2 | |
| 20260902001528 | 70 | 22 | 2.0 | 6.0 | 0.00 | 0.82 | 0.82 | 1017.2 | |
| 20260902001028 | 70 | 26 | 0.0 | 5.0 | 0.00 | 0.82 | 0.82 | 1016.9 | |
| 20260902000529 | 70 | 23 | 0.0 | 5.0 | 0.00 | 0.82 | 0.82 | 1016.8 | |
| 20260902000028 | 70 | 23 | 1.0 | 5.0 | 0.00 | 0.82 | 0.82 | 1016.9 | |
| 20260901235528 | 70 | 23 | 0.0 | 5.0 | 0.00 | 0.82 | 0.82 | 1016.8 | |
| 20260901235028 | 70 | 23 | 0.0 | 6.0 | 0.00 | 0.82 | 0.82 | 1016.8 | |
| 20260901234528 | 70 | 23 | 2.0 | 6.0 | 0.00 | 0.82 | 0.82 | 1016.8 | |
| 20260901234043 | 70 | 15 | 1.0 | 5.0 | 0.00 | 0.82 | 0.82 | 1016.8 | |
| 20260901233529 | 70 | 15 | 2.0 | 3.0 | 0.00 | 0.82 | 0.82 | 1016.6 | |
| 20260901233030 | 70 | 15 | 0.0 | 3.0 | 0.00 | 0.82 | 0.82 | 1016.5 | |
| 20260901232528 | 70 | 15 | 0.0 | 3.0 | 0.00 | 0.82 | 0.82 | 1016.6 | |
| 20260901232028 | 70 | 15 | 0.0 | 3.0 | 0.00 | 0.82 | 0.82 | 1016.7 | |
| 20260901231528 | 70 | 15 | 0.0 | 2.0 | 0.00 | 0.82 | 0.82 | 1016.7 | |
| 20260901231028 | 70 | 15 | 0.0 | 5.0 | 0.00 | 0.82 | 0.82 | 1016.6 | |
| 20260901230528 | 70 | 15 | 0.0 | 6.0 | 0.00 | 0.82 | 0.82 | 1016.6 | |
| 20260901230029 | 70 | 27 | 0.0 | 6.0 | 0.00 | 0.82 | 0.82 | 1016.7 | |
| 20260901225528 | 70 | 1 | 2.0 | 6.0 | 0.00 | 0.82 | 0.82 | 1016.7 | |
| 20260901225028 | 70 | 18 | 0.0 | 6.0 | 0.00 | 0.82 | 0.82 | 1016.7 | |
| 20260901224528 | 71 | 18 | 3.0 | 6.0 | 0.00 | 0.82 | 0.82 | 1016.7 | |
| 20260901224028 | 71 | 18 | 0.0 | 5.0 | 0.00 | 0.82 | 0.82 | 1016.6 | |
| 20260901223528 | 71 | 17 | 0.0 | 6.0 | 0.00 | 0.82 | 0.82 | 1016.5 | |
| 20260901223031 | 71 | 46 | 0.0 | 6.0 | 0.00 | 0.82 | 0.82 | 1016.4 | |
| 20260901222528 | 71 | 353 | 0.0 | 5.0 | 0.00 | 0.82 | 0.82 | 1016.4 | |
| 20260901222028 | 71 | 348 | 0.0 | 5.0 | 0.00 | 0.82 | 0.82 | 1016.4 | |
| 20260901221528 | 71 | 347 | 3.0 | 5.0 | 0.00 | 0.82 | 0.82 | 1016.4 | |
| 20260901221028 | 71 | 28 | 0.0 | 8.0 | 0.00 | 0.82 | 0.82 | 1016.5 | |
| 20260901220528 | 71 | 28 | 0.0 | 8.0 | 0.00 | 0.82 | 0.82 | 1016.6 | |
| 20260901220044 | 71 | 38 | 0.0 | 6.0 | 0.00 | 0.82 | 0.82 | 1016.7 | |
| 20260901215529 | 71 | 39 | 2.0 | 8.0 | 0.00 | 0.82 | 0.82 | 1016.8 | |
| 20260901215028 | 71 | 21 | 2.0 | 9.0 | 0.00 | 0.82 | 0.82 | 1016.7 | |
| 20260901214528 | 71 | 10 | 3.0 | 9.0 | 0.00 | 0.82 | 0.82 | 1016.8 | |
| 20260901214028 | 71 | 6 | 5.0 | 8.0 | 0.00 | 0.82 | 0.82 | 1016.7 | |
| 20260901213531 | 72 | 16 | 2.0 | 8.0 | 0.00 | 0.82 | 0.82 | 1016.6 | |
| 20260901213028 | 72 | 33 | 1.0 | 8.0 | 0.00 | 0.82 | 0.82 | 1016.5 | |
| 20260901212528 | 72 | 27 | 2.0 | 8.0 | 0.00 | 0.82 | 0.82 | 1016.5 | |
| 20260901212028 | 72 | 43 | 1.0 | 8.0 | 0.00 | 0.82 | 0.82 | 1016.3 | |
| 20260901211528 | 72 | 11 | 0.0 | 8.0 | 0.00 | 0.82 | 0.82 | 1016.4 | |
| 20260901211028 | 72 | 6 | 5.0 | 8.0 | 0.00 | 0.82 | 0.82 | 1016.4 | |
| 20260901210529 | 72 | 37 | 3.0 | 5.0 | 0.00 | 0.82 | 0.82 | 1016.3 | |
| 20260901210028 | 72 | 32 | 1.0 | 6.0 | 0.00 | 0.82 | 0.82 | 1016.3 | |
| 20260901205528 | 72 | 33 | 0.0 | 6.0 | 0.00 | 0.82 | 0.82 | 1016.4 | |
| 20260901205028 | 71 | 32 | 0.0 | 6.0 | 0.00 | 0.82 | 0.82 | 1016.4 | |
| 20260901204528 | 71 | 0 | 0.0 | 6.0 | 0.00 | 0.82 | 0.82 | 1016.2 | |
| 20260901204029 | 71 | 0 | 0.0 | 6.0 | 0.00 | 0.82 | 0.82 | 1016.4 | |
| 20260901203528 | 71 | 18 | 0.0 | 6.0 | 0.00 | 0.82 | 0.82 | 1016.4 | |
| 20260901203028 | 71 | 18 | 1.0 | 8.0 | 0.00 | 0.82 | 0.82 | 1016.3 | |
| 20260901202528 | 71 | 18 | 3.0 | 8.0 | 0.00 | 0.82 | 0.82 | 1016.3 | |
| 20260901202028 | 71 | 24 | 2.0 | 8.0 | 0.00 | 0.82 | 0.82 | 1016.3 | |
| 20260901201528 | 71 | 41 | 1.0 | 8.0 | 0.00 | 0.82 | 0.82 | 1016.3 | |
| 20260901201028 | 71 | 5 | 3.0 | 8.0 | 0.00 | 0.82 | 0.82 | 1016.3 | |
| 20260901200529 | 71 | 4 | 3.0 | 8.0 | 0.00 | 0.82 | 0.82 | 1016.4 | |
| 20260901200028 | 71 | 11 | 1.0 | 6.0 | 0.00 | 0.82 | 0.82 | 1016.3 | |
| 20260901195528 | 71 | 35 | 2.0 | 9.0 | 0.00 | 0.82 | 0.82 | 1016.4 | |
| 20260901195028 | 71 | 24 | 2.0 | 9.0 | 0.00 | 0.82 | 0.82 | 1016.3 | |
| 20260901194528 | 71 | 57 | 0.0 | 5.0 | 0.00 | 0.82 | 0.82 | 1016.3 | |
| 20260901194028 | 70 | 5 | 0.0 | 6.0 | 0.00 | 0.82 | 0.82 | 1016.3 | |
| 20260901193543 | 70 | 4 | 0.0 | 6.0 | 0.00 | 0.82 | 0.82 | 1016.3 | |
| 20260901193028 | 70 | 3 | 5.0 | 6.0 | 0.00 | 0.82 | 0.82 | 1016.2 | |
| 20260901192558 | 70 | 72 | 0.0 | 9.0 | 0.00 | 0.82 | 0.82 | 1016.2 | |
| 20260901192028 | 70 | 86 | 2.0 | 9.0 | 0.00 | 0.82 | 0.82 | 1015.9 | |
| 20260901191543 | 70 | 5 | 1.0 | 8.0 | 0.00 | 0.82 | 0.82 | 1015.9 | |
| 20260901191058 | 70 | 39 | 5.0 | 11.0 | 0.00 | 0.82 | 0.82 | 1015.9 | |
| 20260901190543 | 69 | 26 | 2.0 | 11.0 | 0.00 | 0.82 | 0.82 | 1015.8 | |
| 20260901190028 | 69 | 6 | 3.0 | 8.0 | 0.00 | 0.82 | 0.82 | 1015.8 | |
| 20260901185528 | 69 | 49 | 2.0 | 9.0 | 0.00 | 0.82 | 0.82 | 1015.9 | |
| 20260901185059 | 69 | 10 | 0.0 | 9.0 | 0.00 | 0.82 | 0.82 | 1016.0 | |
| 20260901184528 | 69 | 0 | 2.0 | 8.0 | 0.00 | 0.82 | 0.82 | 1016.1 | |
| 20260901184028 | 69 | 96 | 2.0 | 8.0 | 0.00 | 0.82 | 0.82 | 1016.1 | |
| 20260901183528 | 69 | 16 | 1.0 | 6.0 | 0.00 | 0.82 | 0.82 | 1016.1 | |
| 20260901183028 | 69 | 7 | 3.0 | 6.0 | 0.00 | 0.82 | 0.82 | 1016.3 | |
| 20260901182543 | 69 | 54 | 2.0 | 8.0 | 0.00 | 0.82 | 0.82 | 1016.3 | |
| 20260901182044 | 69 | 75 | 0.0 | 14.0 | 0.00 | 0.82 | 0.82 | 1016.2 | |
| 20260901181528 | 69 | 71 | 0.0 | 14.0 | 0.00 | 0.82 | 0.82 | 1016.1 | |
| 20260901181028 | 69 | 60 | 0.0 | 8.0 | 0.00 | 0.82 | 0.82 | 1016.2 | |
| 20260901180528 | 69 | 342 | 1.0 | 9.0 | 0.00 | 0.82 | 0.82 | 1016.1 | |
| 20260901180028 | 69 | 95 | 2.0 | 9.0 | 0.00 | 0.82 | 0.82 | 1016.1 | |
| 20260901175543 | 69 | 349 | 1.0 | 11.0 | 0.00 | 0.82 | 0.82 | 1016.0 | |
| 20260901175028 | 69 | 339 | 6.0 | 11.0 | 0.00 | 0.82 | 0.82 | 1016.0 | |
| 20260901174559 | 69 | 104 | 1.0 | 8.0 | 0.00 | 0.82 | 0.82 | 1016.1 | |
| 20260901174028 | 69 | 55 | 1.0 | 8.0 | 0.00 | 0.82 | 0.82 | 1016.1 | |
| 20260901173528 | 68 | 50 | 0.0 | 9.0 | 0.00 | 0.82 | 0.82 | 1016.1 | |
| 20260901173028 | 68 | 47 | 1.0 | 9.0 | 0.00 | 0.82 | 0.82 | 1015.9 | |
| 20260901172543 | 68 | 29 | 5.0 | 11.0 | 0.00 | 0.82 | 0.82 | 1015.9 | |
| 20260901172028 | 68 | 82 | 0.0 | 11.0 | 0.00 | 0.82 | 0.82 | 1015.9 | |
| 20260901171527 | 68 | 71 | 0.0 | 6.0 | 0.00 | 0.82 | 0.82 | 1016.0 | |
| 20260901171028 | 68 | 60 | 0.0 | 9.0 | 0.00 | 0.82 | 0.82 | 1015.9 | |
| 20260901170528 | 68 | 115 | 1.0 | 9.0 | 0.00 | 0.82 | 0.82 | 1015.9 | |
| 20260901170028 | 68 | 33 | 5.0 | 9.0 | 0.00 | 0.82 | 0.82 | 1016.0 | |
| 20260901165528 | 68 | 61 | 5.0 | 8.0 | 0.00 | 0.82 | 0.82 | 1016.0 | |
| 20260901165043 | 68 | 56 | 5.0 | 11.0 | 0.00 | 0.82 | 0.82 | 1016.0 | |
| 20260901164528 | 68 | 112 | 0.0 | 11.0 | 0.00 | 0.82 | 0.82 | 1016.0 | |
| 20260901164028 | 68 | 82 | 2.0 | 6.0 | 0.00 | 0.82 | 0.82 | 1016.1 | |
| 20260901163528 | 68 | 84 | 1.0 | 6.0 | 0.00 | 0.82 | 0.82 | 1016.1 | |
| 20260901163028 | 68 | 84 | 0.0 | 6.0 | 0.00 | 0.82 | 0.82 | 1016.1 | |
| 20260901162528 | 68 | 19 | 0.0 | 8.0 | 0.00 | 0.82 | 0.82 | 1016.1 | |
| 20260901162113 | 68 | 43 | 2.0 | 8.0 | 0.00 | 0.82 | 0.82 | 1016.1 | |
| 20260901161544 | 68 | 11 | 0.0 | 5.0 | 0.00 | 0.82 | 0.82 | 1016.0 | |
| 20260901161028 | 67 | 355 | 2.0 | 8.0 | 0.00 | 0.82 | 0.82 | 1016.1 | |
| 20260901160527 | 67 | 354 | 2.0 | 8.0 | 0.00 | 0.82 | 0.82 | 1016.1 | |
| 20260901160028 | 67 | 29 | 5.0 | 6.0 | 0.00 | 0.82 | 0.82 | 1016.1 | |
| 20260901155528 | 67 | 27 | 2.0 | 5.0 | 0.02 | 0.82 | 0.82 | 1016.1 | |
| 20260901155028 | 67 | 28 | 0.0 | 6.0 | 0.06 | 0.82 | 0.82 | 1016.1 | |
| 20260901154529 | 67 | 28 | 1.0 | 6.0 | 0.17 | 0.82 | 0.82 | 1016.2 | |
| 20260901154057 | 67 | 29 | 2.0 | 8.0 | 0.18 | 0.82 | 0.82 | 1016.2 | |
| 20260901153528 | 67 | 34 | 1.0 | 8.0 | 0.18 | 0.82 | 0.82 | 1016.2 | |
| 20260901153058 | 67 | 21 | 2.0 | 8.0 | 0.18 | 0.82 | 0.82 | 1016.3 | |
| 20260901152528 | 67 | 9 | 3.0 | 5.0 | 0.18 | 0.82 | 0.82 | 1016.1 | |
| 20260901152028 | 67 | 99 | 0.0 | 3.0 | 0.18 | 0.82 | 0.82 | 1015.8 | |
| 20260901151527 | 67 | 143 | 0.0 | 0.0 | 0.19 | 0.82 | 0.82 | 1015.4 | |
| 20260901151029 | 67 | 143 | 0.0 | 3.0 | 0.20 | 0.82 | 0.82 | 1015.4 | |
| 20260901150528 | 66 | 143 | 0.0 | 8.0 | 0.21 | 0.82 | 0.82 | 1014.7 | |
| 20260901150043 | 66 | 143 | 0.0 | 11.0 | 0.22 | 0.82 | 0.82 | 1014.1 | |
| 20260901145527 | 66 | 116 | 3.0 | 11.0 | 0.20 | 0.80 | 0.80 | 1014.1 | |
| 20260901145043 | 67 | 118 | 5.0 | 9.0 | 0.16 | 0.76 | 0.76 | 1015.6 | |
| 20260901144528 | 67 | 3 | 0.0 | 8.0 | 0.05 | 0.65 | 0.65 | 1017.3 | |
| 20260901144028 | 67 | 14 | 3.0 | 8.0 | 0.04 | 0.64 | 0.64 | 1016.7 | |
| 20260901143528 | 67 | 32 | 2.0 | 6.0 | 0.04 | 0.64 | 0.64 | 1016.1 | |
| 20260901143027 | 67 | 0 | 2.0 | 9.0 | 0.04 | 0.64 | 0.64 | 1015.9 | |
| 20260901142528 | 67 | 0 | 1.0 | 9.0 | 0.04 | 0.64 | 0.64 | 1015.9 | |
| 20260901142028 | 67 | 64 | 2.0 | 6.0 | 0.04 | 0.64 | 0.64 | 1016.0 | |
| 20260901141527 | 67 | 63 | 2.0 | 6.0 | 0.03 | 0.63 | 0.63 | 1015.9 | |
| 20260901141058 | 67 | 63 | 3.0 | 6.0 | 0.02 | 0.62 | 0.62 | 1015.8 | |
| 20260901140528 | 67 | 7 | 2.0 | 6.0 | 0.01 | 0.61 | 0.61 | 1016.2 | |
| 20260901140027 | 67 | 60 | 0.0 | 5.0 | 0.00 | 0.60 | 0.60 | 1016.2 | |
| 20260901135528 | 67 | 58 | 0.0 | 6.0 | 0.00 | 0.60 | 0.60 | 1016.1 | |
| 20260901135043 | 67 | 58 | 0.0 | 6.0 | 0.00 | 0.60 | 0.60 | 1016.1 | |
| 20260901134528 | 67 | 58 | 0.0 | 6.0 | 0.00 | 0.60 | 0.60 | 1015.8 | |
| 20260901134027 | 67 | 41 | 0.0 | 6.0 | 0.02 | 0.60 | 0.60 | 1016.1 | |
| 20260901133528 | 66 | 41 | 0.0 | 6.0 | 0.02 | 0.60 | 0.60 | 1016.0 | |
| 20260901133027 | 66 | 41 | 2.0 | 6.0 | 0.03 | 0.60 | 0.60 | 1016.0 | |
| 20260901132527 | 66 | 337 | 2.0 | 5.0 | 0.05 | 0.60 | 0.60 | 1016.0 | |
| 20260901132027 | 66 | 95 | 0.0 | 6.0 | 0.06 | 0.60 | 0.60 | 1015.8 | |
| 20260901131527 | 66 | 82 | 3.0 | 6.0 | 0.06 | 0.60 | 0.60 | 1015.8 | |
| 20260901131027 | 66 | 38 | 2.0 | 8.0 | 0.06 | 0.60 | 0.60 | 1016.2 | |
| 20260901130527 | 66 | 75 | 2.0 | 8.0 | 0.06 | 0.60 | 0.60 | 1016.4 | |
| 20260901130057 | 66 | 55 | 1.0 | 6.0 | 0.06 | 0.60 | 0.60 | 1016.3 | |
| 20260901125527 | 66 | 62 | 1.0 | 3.0 | 0.06 | 0.60 | 0.60 | 1016.3 | |
| 20260901125027 | 66 | 62 | 1.0 | 5.0 | 0.06 | 0.60 | 0.60 | 1016.5 | |
| 20260901124527 | 66 | 62 | 0.0 | 5.0 | 0.06 | 0.60 | 0.60 | 1016.6 | |
| 20260901124027 | 66 | 62 | 2.0 | 5.0 | 0.04 | 0.58 | 0.58 | 1016.5 | |
| 20260901123528 | 66 | 11 | 2.0 | 6.0 | 0.04 | 0.58 | 0.58 | 1016.7 | |
| 20260901123028 | 66 | 19 | 1.0 | 9.0 | 0.03 | 0.57 | 0.57 | 1016.8 | |
| 20260901122528 | 66 | 18 | 2.0 | 9.0 | 0.01 | 0.55 | 0.55 | 1016.8 | |
| 20260901122057 | 66 | 45 | 0.0 | 8.0 | 0.01 | 0.54 | 0.54 | 1016.9 | |
| 20260901121527 | 66 | 18 | 1.0 | 8.0 | 0.02 | 0.54 | 0.54 | 1016.9 | |
| 20260901121028 | 67 | 0 | 5.0 | 8.0 | 0.03 | 0.54 | 0.54 | 1016.6 | |
| 20260901120545 | 67 | 8 | 3.0 | 5.0 | 0.04 | 0.54 | 0.54 | 1016.6 | |
| 20260901120028 | 67 | 8 | 0.0 | 5.0 | 0.05 | 0.54 | 0.54 | 1016.6 | |
| 20260901115527 | 66 | 8 | 0.0 | 5.0 | 0.06 | 0.54 | 0.54 | 1016.6 | |
| 20260901115028 | 66 | 8 | 0.0 | 3.0 | 0.08 | 0.54 | 0.54 | 1016.6 | |
| 20260901114528 | 66 | 8 | 0.0 | 3.0 | 0.09 | 0.54 | 0.54 | 1016.6 | |
| 20260901114027 | 66 | 8 | 0.0 | 3.0 | 0.09 | 0.54 | 0.54 | 1016.6 | |
| 20260901113527 | 66 | 8 | 0.0 | 3.0 | 0.10 | 0.54 | 0.54 | 1016.4 |